РПИ Архангельск

РПИ Архангельск

РПИ Архангельск является структурным подразделением VATRUS.

В зону ответственности центра в сети VATSIM входит воздушное пространство над территориями Архангельской области, а так же частью Ненецкого АО.

Руководитель РПИ

Alexey Kaznakov*

Инструкторы РПИ
Входит в состав
ЗЦ Санкт-Петербург

Диспетчеры РПИ

Диспетчер Рейтинг Допуски *
Akhmadjon Saidov Instructor ULAA_CTR
Alexey Zimin Instructor ULAA_CTR
Nikita Assorov Instructor ULAA_CTR

Аэропорты РПИ

ICAO Город Название Погода
ULAA Архангельск Архангельск ULAA 020100Z VRB01MPS 9999 BKN015 11/10 Q1022 R08/CLRD70 NOSIG RMK QFE765/1020
ULKK Котлас Котлас
ULAM Нарьян-Мар Нарьян-Мар